Location: Bothell
(47.7630°N, 122.2040°W)
Time: 05:27:20
(UTC-07:00)

Amateur Radio Satellites - All Passes

Search period start: 02 October 2014 04:57
Search period end: 03 October 2014 04:57
Location: Bothell, 47.7630°N, 122.2040°W

Satellite Date Start Highest point End Downlink Frequencies (MHz)
Time Altitude Azimuth
Gurwin Techsat 1B 02 Oct 05:09:08 05:13:54 34° 295° (WNW) 05:18:39 435.225 FM
OPAL 02 Oct 05:09:24 05:14:37 75° 254° (WSW) 05:19:51 ?
MaSat-1 02 Oct 05:24:03 05:28:22 33° 111° (ESE) 05:32:27 437.345 MHz
SO-50 02 Oct 05:26:58 05:30:08 18° 249° (WSW) 05:33:19 436.795 FM
TMSAT-1 02 Oct 05:37:17 05:41:42 27° 298° (WNW) 05:46:06 436.925 FM
ITAMSAT 1 02 Oct 05:40:34 05:42:35 12° 308° (NW) 05:44:35 435.822 SSB
Uribyol 2 02 Oct 05:41:27 05:43:06 12° 309° (NW) 05:44:46 436.500 FM
JAS-2 02 Oct 05:44:55 05:50:18 25° 91° (E) 05:56:06 435.800 - 435.900 CW/SSB, 435.910 FM
UOSAT-12 02 Oct 05:47:01 05:51:47 81° 234° (SW) 05:56:27 437.025 FM, 437.400 FM
Uosat F 02 Oct 05:48:41 05:53:46 85° 105° (ESE) 05:58:49 435.120 FM
Hamsat 02 Oct 05:52:44 05:54:44 13° 88° (E) 05:56:44 145.90 MHz
RS-15 02 Oct 06:12:30 06:22:22 37° 342° (NNW) 06:32:22 29.354 - 29.394 USB, Beacon 29.352 USB
STRAND 1 02 Oct 06:13:33 06:18:11 37° 65° (ENE) 06:22:51 ?
AO-7 02 Oct 06:28:31 06:36:44 69° 295° (WNW) 06:44:56 29.400 - 29.500 MHz
OPAL 02 Oct 06:53:02 06:54:21 11° 272° (W) 06:55:41 ?
MaSat-1 02 Oct 07:00:20 07:04:47 37° 307° (NW) 07:08:56 437.345 MHz
SO-67 02 Oct 07:13:57 07:15:14 12° 89° (E) 07:16:31 435.3500 MHz FM
Hamsat 02 Oct 07:26:59 07:31:11 67° 286° (WNW) 07:35:19 145.90 MHz
Uosat F 02 Oct 07:28:52 07:31:54 16° 304° (NW) 07:34:57 435.120 FM
JAS-2 02 Oct 07:29:14 07:35:48 74° 288° (WNW) 07:43:09 435.800 - 435.900 CW/SSB, 435.910 FM
UOSAT-12 02 Oct 07:29:19 07:31:09 12° 252° (WSW) 07:32:58 437.025 FM, 437.400 FM
STRAND 1 02 Oct 07:52:48 07:57:23 34° 264° (W) 08:02:02 ?
AO-7 02 Oct 08:22:32 08:28:08 21° 317° (NW) 08:33:45 29.400 - 29.500 MHz
RS-15 02 Oct 08:28:39 08:38:30 36° 16° (NNE) 08:48:35 29.354 - 29.394 USB, Beacon 29.352 USB
SO-67 02 Oct 08:45:12 08:48:34 51° 287° (WNW) 08:51:55 435.3500 MHz FM
Sapphire 02 Oct 08:54:42 08:58:43 22° 107° (ESE) 09:02:46 437.095 MHz 1200 baud AX-25 AFSK
JAS-2 02 Oct 09:15:56 09:20:00 18° 306° (NW) 09:24:20 435.800 - 435.900 CW/SSB, 435.910 FM
PCSat 02 Oct 09:19:01 09:23:55 36° 113° (ESE) 09:28:51 145.825 MHz
HO-68 02 Oct 09:23:21 09:29:38 31° 94° (E) 09:35:53 435.675 MHz FM
Oscar 11 02 Oct 09:50:13 09:52:44 15° 89° (E) 09:55:13 145.825 FM, Beacon 2401.500 USB
FUNcube-1 02 Oct 10:18:26 10:20:42 14° 87° (E) 10:22:56 145.950 - 145.970 MHz USB
UKube-1 02 Oct 10:19:59 10:24:00 34° 97° (E) 10:27:59 145.840 MHz, 145.915 MHz
Sapphire 02 Oct 10:36:15 10:41:38 68° 307° (NW) 10:47:05 437.095 MHz 1200 baud AX-25 AFSK
RS-15 02 Oct 10:42:03 10:53:08 71° 46° (NE) 11:04:37 29.354 - 29.394 USB, Beacon 29.352 USB
PCSat 02 Oct 11:02:06 11:07:16 44° 313° (NW) 11:12:28 145.825 MHz
ZACube-1 02 Oct 11:02:31 11:06:45 36° 96° (E) 11:10:51 437.345 MHz
HO-68 02 Oct 11:10:41 11:17:45 60° 294° (WNW) 11:24:46 435.675 MHz FM
Oscar 11 02 Oct 11:25:03 11:29:20 62° 287° (WNW) 11:33:35 145.825 FM, Beacon 2401.500 USB
JAS-1B 02 Oct 11:45:52 11:46:40 10° 47° (NE) 11:47:27 435.800 - 435.900 CW/SSB
Oscar 19 02 Oct 11:51:04 11:52:30 11° 52° (NE) 11:53:57 437.125 CW, 437.150 USB
FUNcube-1 02 Oct 11:53:04 11:57:39 74° 286° (WNW) 12:02:06 145.950 - 145.970 MHz USB
UKube-1 02 Oct 11:56:22 12:00:05 28° 295° (WNW) 12:03:48 145.840 MHz, 145.915 MHz
Sapphire 02 Oct 12:22:20 12:26:06 19° 329° (NNW) 12:29:53 437.095 MHz 1200 baud AX-25 AFSK
Oscar 16 02 Oct 12:29:19 12:33:18 23° 60° (ENE) 12:37:18 437.025 USB, Beacon 2401.1428
AO-Echo 02 Oct 12:30:09 12:31:06 11° 53° (NE) 12:32:04 ?
ZACube-1 02 Oct 12:39:07 12:43:02 28° 295° (WNW) 12:46:51 437.345 MHz
AO-27 02 Oct 12:43:30 12:46:16 15° 54° (NE) 12:49:02 436.795 MHz FM
PCSat 02 Oct 12:49:14 12:52:09 14° 336° (NNW) 12:55:04 145.825 MHz
RS-15 02 Oct 12:54:54 13:04:55 41° 250° (WSW) 13:15:19 29.354 - 29.394 USB, Beacon 29.352 USB
HO-68 02 Oct 13:00:07 13:04:05 16° 315° (NW) 13:08:02 435.675 MHz FM
Gurwin Techsat 1B 02 Oct 13:16:47 13:19:37 15° 54° (NE) 13:22:28 435.225 FM
Oscar 19 02 Oct 13:25:44 13:30:51 62° 71° (ENE) 13:35:59 437.125 CW, 437.150 USB
JAS-1B 02 Oct 13:29:14 13:36:08 50° 68° (ENE) 13:42:04 435.800 - 435.900 CW/SSB
FUNcube-1 02 Oct 13:31:59 13:33:12 11° 305° (NW) 13:34:24 145.950 - 145.970 MHz USB
MaSat-1 02 Oct 13:36:16 13:38:23 15° 41° (NE) 13:40:20 437.345 MHz
ITAMSAT 1 02 Oct 13:41:24 13:46:11 40° 66° (ENE) 13:51:01 435.822 SSB
Uribyol 2 02 Oct 13:41:47 13:46:38 42° 67° (ENE) 13:51:32 436.500 FM
TMSAT-1 02 Oct 13:43:35 13:47:05 18° 57° (ENE) 13:50:36 436.925 FM
AO-7 02 Oct 13:50:35 13:55:30 18° 39° (NE) 14:00:25 29.400 - 29.500 MHz
Oscar 10/S400 02 Oct 13:58:04 14:08:29 15° 144° (SE) 14:18:44 145.825 - 145.975 CW/USB, Beacon 145.810 USB
AO-Echo 02 Oct 14:04:19 14:08:58 68° 72° (ENE) 14:13:43 ?
Oscar 16 02 Oct 14:07:09 14:12:16 59° 259° (W) 14:17:26 437.025 USB, Beacon 2401.1428
AO-27 02 Oct 14:19:49 14:25:00 83° 74° (ENE) 14:30:14 436.795 MHz FM
Saudisat 1A 02 Oct 14:24:51 14:29:11 61° 124° (ESE) 14:33:33 436.775 MHz
Gurwin Techsat 1B 02 Oct 14:53:28 14:58:47 81° 74° (ENE) 15:04:07 435.225 FM
Oscar 19 02 Oct 15:06:50 15:10:37 20° 269° (W) 15:14:25 437.125 CW, 437.150 USB
MaSat-1 02 Oct 15:11:52 15:15:16 54° 245° (WSW) 15:18:11 437.345 MHz
JAS-1B 02 Oct 15:20:30 15:26:58 33° 264° (W) 15:32:38 435.800 - 435.900 CW/SSB
TMSAT-1 02 Oct 15:21:06 15:26:23 80° 256° (WSW) 15:31:44 436.925 FM
ITAMSAT 1 02 Oct 15:21:10 15:25:46 32° 265° (W) 15:30:24 435.822 SSB
Uribyol 2 02 Oct 15:21:43 15:26:14 30° 265° (W) 15:30:49 436.500 FM
KITSAT 1 02 Oct 15:22:33 15:24:15 11° 96° (E) 15:25:56 435.175 FM
Uosat F 02 Oct 15:27:55 15:31:58 25° 61° (ENE) 15:36:03 435.120 FM
AO-7 02 Oct 15:38:35 15:46:37 58° 62° (ENE) 15:54:40 29.400 - 29.500 MHz
AO-Echo 02 Oct 15:45:31 15:48:18 16° 271° (W) 15:51:06 ?
Sapphire 02 Oct 15:55:11 15:57:55 14° 22° (NNE) 16:00:40 437.095 MHz 1200 baud AX-25 AFSK
AO-27 02 Oct 16:02:19 16:05:11 15° 272° (W) 16:08:04 436.795 MHz FM
JAS-2 02 Oct 16:04:42 16:07:01 13° 50° (NE) 16:09:23 435.800 - 435.900 CW/SSB, 435.910 FM
Saudisat 1A 02 Oct 16:05:25 16:09:06 25° 324° (NW) 16:12:48 436.775 MHz
PCSat 02 Oct 16:20:19 16:23:58 18° 30° (NNE) 16:27:36 145.825 MHz
Gurwin Techsat 1B 02 Oct 16:36:19 16:39:25 16° 272° (W) 16:42:31 435.225 FM
Hamsat 02 Oct 16:49:17 16:52:00 17° 61° (ENE) 16:54:42 145.90 MHz
TMSAT-1 02 Oct 17:05:21 17:07:11 12° 275° (W) 17:09:01 436.925 FM
Uosat F 02 Oct 17:05:40 17:10:30 49° 260° (W) 17:15:23 435.120 FM
KITSAT 1 02 Oct 17:10:01 17:17:49 55° 116° (ESE) 17:25:39 435.175 FM
OPAL 02 Oct 17:16:47 17:20:39 21° 94° (E) 17:24:27 ?
AO-7 02 Oct 17:32:09 17:39:43 39° 263° (W) 17:47:21 29.400 - 29.500 MHz
Sapphire 02 Oct 17:37:44 17:42:53 41° 46° (NE) 17:48:00 437.095 MHz 1200 baud AX-25 AFSK
JAS-2 02 Oct 17:45:50 17:51:01 72° 72° (ENE) 17:56:37 435.800 - 435.900 CW/SSB, 435.910 FM
Saudisat 1A 02 Oct 17:49:49 17:50:13 10° 347° (NNW) 17:50:37 436.775 MHz
PCSat 02 Oct 18:03:05 18:08:30 63° 52° (NE) 18:13:52 145.825 MHz
Hamsat 02 Oct 18:23:14 18:27:31 62° 259° (W) 18:31:47 145.90 MHz
OPAL 02 Oct 18:54:53 18:59:55 57° 292° (WNW) 19:04:50 ?
KITSAT 1 02 Oct 19:05:41 19:13:26 47° 319° (NW) 19:21:13 435.175 FM
SO-67 02 Oct 19:20:49 19:24:15 85° 77° (ENE) 19:27:44 435.3500 MHz FM
Sapphire 02 Oct 19:21:17 19:26:19 40° 246° (WSW) 19:31:20 437.095 MHz 1200 baud AX-25 AFSK
Saudisat 1A 02 Oct 19:31:29 19:31:53 10° 13° (NNE) 19:32:18 436.775 MHz
JAS-2 02 Oct 19:33:37 19:36:55 17° 273° (W) 19:40:21 435.800 - 435.900 CW/SSB, 435.910 FM
SO-50 02 Oct 19:43:28 19:47:57 72° 125° (SE) 19:52:35 436.795 FM
PCSat 02 Oct 19:47:14 19:51:29 24° 252° (WSW) 19:55:43 145.825 MHz
HO-68 02 Oct 19:55:43 20:02:01 35° 58° (ENE) 20:08:21 435.675 MHz FM
STRAND 1 02 Oct 19:59:10 20:04:18 64° 102° (ESE) 20:09:25 ?
UOSAT-12 02 Oct 20:03:44 20:06:00 14° 109° (ESE) 20:08:18 437.025 FM, 437.400 FM
OPAL 02 Oct 20:36:35 20:37:45 11° 312° (NW) 20:38:54 ?
Oscar 11 02 Oct 20:48:29 20:51:36 20° 62° (ENE) 20:54:44 145.825 FM, Beacon 2401.500 USB
KITSAT 1 02 Oct 21:04:55 21:11:05 23° 346° (NNW) 21:17:15 435.175 FM
Saudisat 1A 02 Oct 21:09:18 21:13:00 25° 36° (NE) 21:16:42 436.775 MHz
FUNcube-1 02 Oct 21:17:48 21:20:57 19° 61° (ENE) 21:24:07 145.950 - 145.970 MHz USB
UKube-1 02 Oct 21:18:34 21:22:43 47° 70° (ENE) 21:26:54 145.840 MHz, 145.915 MHz
SO-50 02 Oct 21:25:16 21:29:00 24° 326° (NNW) 21:32:49 436.795 FM
ISS 02 Oct 21:35:52 21:38:10 18° 138° (SE) 21:40:28 145.800 FM
STRAND 1 02 Oct 21:39:14 21:43:03 22° 301° (WNW) 21:46:52 ?
UOSAT-12 02 Oct 21:40:47 21:45:26 89° 127° (SE) 21:50:12 437.025 FM, 437.400 FM
HO-68 02 Oct 21:42:27 21:49:26 57° 258° (WSW) 21:56:30 435.675 MHz FM
ZACube-1 02 Oct 22:01:55 22:06:16 44° 70° (ENE) 22:10:40 437.345 MHz
Oscar 11 02 Oct 22:23:12 22:27:27 52° 260° (W) 22:31:44 145.825 FM, Beacon 2401.500 USB
Saudisat 1A 02 Oct 22:48:33 22:52:56 61° 236° (WSW) 22:57:17 436.775 MHz
FUNcube-1 02 Oct 22:52:20 22:56:52 62° 259° (W) 23:01:29 145.950 - 145.970 MHz USB
UKube-1 02 Oct 22:55:58 22:59:10 20° 267° (W) 23:02:22 145.840 MHz, 145.915 MHz
KITSAT 1 02 Oct 23:03:23 23:09:41 24° 16° (NNE) 23:15:57 435.175 FM
SO-50 02 Oct 23:10:01 23:11:16 11° 351° (N) 23:12:31 436.795 FM
ISS 02 Oct 23:11:09 23:14:29 87° 156° (SSE) 23:17:49 145.800 FM
UOSAT-12 02 Oct 23:22:35 23:26:14 22° 329° (NNW) 23:29:55 437.025 FM, 437.400 FM
ZACube-1 02 Oct 23:39:12 23:42:51 23° 268° (W) 23:46:34 437.345 MHz
ISS 03 Oct 00:48:12 00:51:24 41° 355° (N) 00:54:35 145.800 FM
SO-50 03 Oct 00:51:57 00:53:58 12° 16° (NNE) 00:56:00 436.795 FM
KITSAT 1 03 Oct 00:59:18 01:07:10 51° 43° (NE) 01:14:59 435.175 FM
UOSAT-12 03 Oct 01:07:07 01:08:10 11° 353° (N) 01:09:14 437.025 FM, 437.400 FM
RS-15 03 Oct 01:12:25 01:20:59 27° 103° (ESE) 01:29:27 29.354 - 29.394 USB, Beacon 29.352 USB
Oscar 19 03 Oct 01:35:06 01:38:21 17° 89° (E) 01:41:35 437.125 CW, 437.150 USB
Uribyol 2 03 Oct 01:53:35 01:54:54 11° 85° (E) 01:56:14 436.500 FM
ITAMSAT 1 03 Oct 01:54:20 01:54:31 10° 85° (E) 01:54:42 435.822 SSB
AO-Echo 03 Oct 02:08:37 02:12:01 18° 90° (E) 02:15:28 ?
Oscar 16 03 Oct 02:15:30 02:20:19 38° 97° (E) 02:25:04 437.025 USB, Beacon 2401.1428
ISS 03 Oct 02:25:10 02:28:27 55° 15° (NNE) 02:31:44 145.800 FM
AO-27 03 Oct 02:30:03 02:34:10 23° 92° (E) 02:38:16 436.795 MHz FM
SO-50 03 Oct 02:31:40 02:35:59 32° 39° (NE) 02:40:21 436.795 FM
UOSAT-12 03 Oct 02:48:10 02:50:26 13° 18° (NNE) 02:52:42 437.025 FM, 437.400 FM
KITSAT 1 03 Oct 02:54:56 03:02:36 49° 246° (WSW) 03:10:15 435.175 FM
JAS-1B 03 Oct 02:59:36 03:05:10 53° 101° (E) 03:11:09 435.800 - 435.900 CW/SSB
OPAL 03 Oct 03:00:15 03:01:37 11° 48° (NE) 03:02:58 ?
Gurwin Techsat 1B 03 Oct 03:06:47 03:11:09 25° 93° (E) 03:15:29 435.225 FM
Oscar 19 03 Oct 03:13:07 03:18:16 73° 287° (WNW) 03:23:22 437.125 CW, 437.150 USB
RS-15 03 Oct 03:20:51 03:31:53 90° 307° (NW) 03:42:54 29.354 - 29.394 USB, Beacon 29.352 USB
ITAMSAT 1 03 Oct 03:29:42 03:34:57 72° 103° (ESE) 03:40:10 435.822 SSB
Uribyol 2 03 Oct 03:30:00 03:35:16 76° 104° (ESE) 03:40:30 436.500 FM
TMSAT-1 03 Oct 03:33:46 03:38:30 32° 95° (E) 03:43:13 436.925 FM
AO-7 03 Oct 03:39:03 03:42:16 13° 83° (E) 03:45:28 29.400 - 29.500 MHz
AO-Echo 03 Oct 03:46:15 03:51:14 68° 288° (WNW) 03:56:22 ?
Oscar 16 03 Oct 03:55:01 03:59:36 33° 296° (WNW) 04:04:09 437.025 USB, Beacon 2401.1428
ISS 03 Oct 04:01:57 04:05:05 39° 214° (SW) 04:08:13 145.800 FM
AO-27 03 Oct 04:08:55 04:14:01 55° 291° (WNW) 04:19:07 436.795 MHz FM
SO-50 03 Oct 04:12:06 04:16:46 50° 239° (WSW) 04:21:28 436.795 FM
UOSAT-12 03 Oct 04:27:33 04:31:57 36° 41° (NE) 04:36:17 437.025 FM, 437.400 FM
OPAL 03 Oct 04:34:21 04:39:27 57° 67° (ENE) 04:44:33 ?
Gurwin Techsat 1B 03 Oct 04:46:15 04:51:24 51° 291° (WNW) 04:56:31 435.225 FM
